Regional Weather Roundup
Issued by NWS

Home | Current Version | Previous Version | Graphics & Text | Print | Product List | Glossary On
Versions: 1 2 3 4 5 6 7 8 9 10 11 12 13 14 15 16 17 18 19 20 21 22 23 24 25 26 27 28 29 30 31 32 33 34 35 36 37 38 39 40 41 42 43 44 45 46 47 48 49 50
000
ASUS45 KBOI 271110
RWRID

IDAHO REGIONAL WEATHER ROUNDUP
NATIONAL WEATHER SERVICE BOISE ID
500 AM MDT THU AUG 27 2015

NOTE: "FAIR" INDICATES FEW OR NO CLOUDS BELOW 12000 FEET
WITH NO SIGNIFICANT WEATHER AND/OR OBSTRUCTIONS TO VISIBILITY

IDZ012-014-271200-
SOUTHWEST IDAHO


CITY           SKY/WX    TMP DP  RH WIND       PRES   REMARKS
BOISE          PTCLDY    73  48  41 SE12      30.06S
CALDWELL       PTCLDY    70  45  40 SE9       30.05S
MOUNTAIN HOME  MOCLDY    66  47  51 E7        30.07S
$$

IDZ016-017-271200-
SOUTHCENTRAL IDAHO


CITY           SKY/WX    TMP DP  RH WIND       PRES   REMARKS
BURLEY         CLEAR     56  48  74 CALM      30.14F
JEROME         CLEAR     62  46  55 E3        30.15S
TWIN FALLS     PTCLDY    67  45  45 S10       30.14S
$$

IDZ019>023-271200-
SOUTHEAST IDAHO


CITY           SKY/WX    TMP DP  RH WIND       PRES   REMARKS
IDAHO FALLS    CLEAR     51  48  89 NW5       30.22R
POCATELLO      CLEAR     56  51  84 W7        30.20R
REXBURG        PTCLDY    52  47  83 NE6       30.22F
$$

IDZ006-010-011-018-031-032-271200-
CENTRAL IDAHO MOUNTAINS


CITY           SKY/WX    TMP DP  RH WIND       PRES   REMARKS
MCCALL         MOCLDY    58  41  53 CALM      30.18S
HAILEY         CLEAR     55  50  82 NW14      30.26S
STANLEY          N/A     46  40  79 CALM      30.33S
SALMON         PTCLDY    70  41  35 SE3       30.12R
CHALLIS        PTCLDY    53  45  74 CALM      30.23S
$$

IDZ002-004-006-007-026-271200-
NORTHERN IDAHO


CITY           SKY/WX    TMP DP  RH WIND       PRES   REMARKS
LEWISTON       PTCLDY    68  39  34 CALM      29.98R
LOWELL           N/A     59  55  87 NW3       30.03R
COEUR D`ALENE  CLEAR     59  46  63 SW3       30.00R
MULLAN PASS    PTCLDY    64  34  32 NW7       30.20S HAZE
$$



USA.gov is the U.S. government's official web portal to all federal, state and local government web resources and services.